Location: *
(28.3744°N, 81.5492°W)
Time: 04:23:30
(UTC+00:00)

SEDSat Delta rocket - Pass Details

Date: 15 June 2025
Orbit: 529 x 968 km, 31.4° (Epoch: 11 July)

Event Time Altitude Azimuth Distance (km) Brightness Sun altitude
Exits shadow 08:43:39 28° 173° (S) 1,236 4.3 -19.8°
Maximum altitude 08:44:27 29° 155° (SSE) 1,175 4.3 -19.7°
Drops below altitude 10° 08:48:22 10° 94° (E) 1,938 6.2 -19.1°
Sets 08:50:46 0° 83° (E) 2,783 7.4 -18.7°
